Regional Weather Roundup
Issued by NWS

Home | Current Version | Previous Version | Graphics & Text | Print | Product List | Glossary On
Versions: 1 2 3 4 5 6 7 8 9 10 11 12 13 14 15 16 17 18 19 20 21 22 23 24 25 26 27 28 29 30 31 32 33 34 35 36 37 38 39 40 41 42 43 44 45 46 47 48 49 50
000
ASUS43 KFSD 170510
RWRSD

WEATHER ROUNDUP FOR SOUTH DAKOTA
NATIONAL WEATHER SERVICE SIOUX FALLS SD
1100 PM CST TUE JAN 16 2018

NOTE: "FAIR" INDICATES FEW OR NO CLOUDS BELOW 12,000 FEET WITH NO
SIGNIFICANT WEATHER AND/OR OBSTRUCTIONS TO VISIBILITY.


SDZ001>005-009-010-012>017-170600-
NORTHWEST AND NORTH CENTRAL SOUTH DAKOTA

CITY           SKY/WX    TMP DP  RH WIND       PRES   REMARKS
BUFFALO          N/A      5  -4  66 W8        30.07F WCI  -8
FAITH            N/A      8   2  76 S24       30.19F WCI -13
MOBRIDGE       PTCLDY     8   0  69 SE10      30.25F WCI  -6
$$

SDZ012>016-024>037-041>051-057-063-072>074-170600-
SOUTHWEST AND SOUTH CENTRAL SOUTH DAKOTA

CITY           SKY/WX    TMP DP  RH WIND       PRES   REMARKS
RAPID CTY ARPT PTCLDY    13   5  70 SE6       30.18F WCI   4
PIERRE         CLEAR      7   2  80 SE8       30.32F WCI  -6
CUSTER         PTCLDY    23 -20  14 CALM      30.16S
ELLSWORTH AFB  PTCLDY    14   4  64 S5        30.16F WCI   7
PHILIP         CLEAR     12   3  67 CALM      30.26F
PINE RIDGE     CLEAR     19   7  59 SW8       30.25F WCI   9
SPEARFISH        N/A     25   5  42 S5        30.15S WCI  19
WINNER         FAIR      15   2  56 SW15G24   30.33F WCI   0
$$

SDZ004>011-016>023-039-040-170600-
NORTHEAST SOUTH DAKOTA

CITY           SKY/WX    TMP DP  RH WIND       PRES   REMARKS
ABERDEEN       CLEAR      2  -3  80 S13       30.40F WCI -15
WATERTOWN      CLOUDY     0  -4  83 S9        30.40F WCI -15
BROOKINGS      CLOUDY    -2  -6  83 S7        30.45F WCI -15
SISSETON         N/A     10  -2  58 S8        30.40F WCI  -2
$$

SDZ017-020-022-023-036>040-048>070-170600-
SOUTHEAST SOUTH DAKOTA

CITY           SKY/WX    TMP DP  RH WIND       PRES   REMARKS
SIOUX FALLS    CLEAR      1  -3  83 S8        30.50F WCI -13
HURON          CLEAR      2  -3  80 S14       30.44F WCI -16
CHAMBERLAIN    CLEAR      9   1  72 SE5       30.38F WCI   0
MITCHELL       CLEAR      4  -3  73 SE10      30.48F WCI -11
YANKTON        CLOUDY     1  -4  79 E3        30.53F
$$

ABBREVIATIONS USED IN REMARKS
   TC - TEMPERATURE IN CELSIUS
  WCI - WIND CHILL INDEX
   HX - HEAT INDEX
  VSB - VISIBILITY





USA.gov is the U.S. government's official web portal to all federal, state and local government web resources and services.